Home > Weather > Gorleben > Past weeks

Flag for Germany Weather for the Past 2 Weeks in Gorleben, Lower Saxony, Germany

Now
45 °F

Light rain. Partly sunny.


Feels Like: 36 °F
Forecast: 42 / 47 °F
Wind: 21 mph from South

Location: Mecklenburg-Vorpommern - Parchim

Current Time: Feb 8, 2016 at 11:58:34 AM

Latest Report: Feb 8, 2016 at 10:50 AM


Visibility: N/A

Pressure: 29.27 "Hg

Humidity: 81%

Dew point: 39 °F

Location of GorlebenLocation

Historic Weather in Gorleben — Graph

°F

Gorleben Temperature Yesterday

Maximum temperature yesterday: 52 °F (at 12:50 PM)
Minimum temperature yesterday: 43 °F (at 7:50 AM)
Average temperature yesterday: 48 °F

High & Low Weather Summary for the Past Weeks

 TemperatureHumidityPressure
High52 °F (Jan 27, 11:50 AM)100% (Jan 24, 10:20 AM)30.42 "Hg (Jan 24, 10:20 AM)
Low32 °F (Feb 5, 5:50 AM)54% (Feb 2, 12:50 PM)29.27 "Hg (Feb 8, 10:20 AM)
Average44 °F83%29.88 "Hg
* Reported Jan 24 10:20 AM — Feb 8 10:50 AM, Gorleben, Weather by CustomWeather, © 2016

Note: Actual official high and low records may vary slightly from our data, if they occured in-between our weather recording intervals... More about our weather records

Advertising

Gorleben Weather History for the Previous 24 Hours

 ConditionsComfort  
Time TempWeatherWind HumidityBarometerVisibility
10:50 AM
Mon, Feb 8
45 °FLight rain. Partly sunny.21 mph81%29.27 "HgN/A
10:20 AM45 °FLight rain. Overcast.21 mph81%29.27 "HgN/A
9:50 AM45 °FLight rain. More clouds than sun.22 mph76%29.30 "HgN/A
9:20 AM45 °FPartly sunny.20 mph71%29.30 "HgN/A
8:50 AM45 °FBroken clouds.20 mph71%29.30 "HgN/A
8:20 AM43 °FLight rain. Broken clouds.21 mph76%29.33 "HgN/A
7:52 AM43 °FPartly sunny.18 mph76%29.33 "HgN/A
7:20 AM43 °FPassing clouds.20 mph76%29.36 "HgN/A
6:50 AM43 °FPassing clouds.18 mph76%29.36 "HgN/A
6:20 AM43 °FPassing clouds.17 mph71%29.39 "HgN/A
5:50 AM43 °FClear.16 mph71%29.42 "Hg10 mi
5:20 AM41 °FClear.15 mph76%29.42 "Hg10 mi
5:50 PM
Sun, Feb 7
48 °FLight rain. Passing clouds.13 mph82%29.53 "HgN/A
5:20 PM48 °FLight rain. Passing clouds.14 mph76%29.53 "HgN/A
4:50 PM50 °FLight rain. Partly sunny.15 mph67%29.53 "HgN/A
4:20 PM52 °FSunny.15 mph62%29.50 "Hg10 mi
3:50 PM50 °FSunny.15 mph67%29.50 "Hg10 mi
3:20 PM52 °FSunny.15 mph62%29.50 "Hg10 mi
2:50 PM52 °FSunny.14 mph62%29.50 "Hg10 mi
2:20 PM52 °FSunny.13 mph62%29.50 "Hg10 mi
1:50 PM52 °FSunny.13 mph62%29.50 "Hg10 mi
12:50 PM52 °FSunny.15 mph62%29.50 "Hg10 mi
12:20 PM50 °FSunny.14 mph67%29.50 "Hg10 mi
11:50 AM50 °FSunny.15 mph67%29.50 "Hg10 mi
11:20 AM50 °FSunny.15 mph62%29.53 "Hg10 mi
Weather by CustomWeather, © 2016

See weather overviewHow to use our weather pages